Location: Eimen
(51.8766°N, 9.7806°E)
Time: 11:28:49
(UTC+00:00)

Cosmos 1408 - Pass Details

Date: 23 May 2024
Orbit: 362 x 376 km, 82.6° (Epoch: 19 June)

Event Time Altitude Azimuth Distance (km) Brightness Sun altitude
Rises 23:56:26 0° 105° (ESE) 2,204 5.9 -17.0°
Enters shadow 00:53:01 -72° 194° (SSW) 12,537 9.7 -14.5°
Maximum altitude 01:30:34 47° 96° (E) 492 2.8 -11.9°
